Weather History for Mustang Island A85A, TX

Change the Weather History Date:

Tuesday, February 11, 2014

  Actual Average Record
Temperature  
Mean Temperature 46 °F -  
Max Temperature 51 °F - - ()
Min Temperature 42 °F - - ()
Degree Days  
Heating Degree Days 18    
Moisture  
Dew Point 44 °F    
Average Humidity 92    
Maximum Humidity 100    
Minimum Humidity 81    
Precipitation  
Precipitation 0.01 in - - ()
Sea Level Pressure  
Sea Level Pressure 30.08 in    
Wind  
Wind Speed 28 mph (North)    
Max Wind Speed 32 mph    
Max Gust Speed 39 mph    
Visibility 8 miles    
Events      
T = Trace of Precipitation, MM = Missing Value Source: NWS Daily Summary

Daily Weather History Graph

Daily Weather History Graph

Search for Another Location

Airport:

Trip Planner

Search our weather history database for the weather conditions in past years. The results will help you decide how hot, cold, wet, or windy it might be!

Date:

Astronomy

Feb. 11, 2014 Rise Set
Actual Time 7:05 AM CST 6:13 PM CST
Civil Twilight 6:41 AM CST 6:37 PM CST
Nautical Twilight 6:13 AM CST 7:04 PM CST
Astronomical Twilight 5:46 AM CST 7:32 PM CST
Moon 3:41 PM CST (2/11) 4:35 AM CST (2/11)
Length of Visible Light 11h 56m
Length of Day
11h 08m
Waxing Gibbous, 91% of the Moon is Illuminated
Feb 11
Waxing Gibbous
Feb 14
Full
Feb 22
Last Quarter
Mar 1
New
Mar 8
First Quarter

Hourly Weather History & Observations

Time (CST) Temp. Windchill Dew Point Humidity Pressure Visibility Wind Dir Wind Speed Gust Speed Precip Events Conditions
12:15 AM 51.8 °F - 50.0 °F 94% 30.03 in 9.0 mi NNE 28.8 mph 35.7 mph N/A   Overcast
12:35 AM 51.8 °F - 50.0 °F 94% 30.03 in 9.0 mi NNE 27.6 mph 33.4 mph N/A   Overcast
12:55 AM 50.0 °F - 50.0 °F 100% 30.02 in 9.0 mi NNE 28.8 mph 34.5 mph N/A   Overcast
1:15 AM 51.8 °F - 50.0 °F 94% 30.02 in 8.0 mi NNE 28.8 mph - N/A   Overcast
1:35 AM 50.0 °F - 50.0 °F 100% 30.02 in 5.0 mi NNE 28.8 mph - N/A   Overcast
1:55 AM 50.0 °F - 48.2 °F 94% 30.02 in 5.0 mi NNE 29.9 mph 36.8 mph N/A   Overcast
2:15 AM 50.0 °F - 48.2 °F 94% 30.01 in 5.0 mi North 31.1 mph 36.8 mph N/A   Overcast
2:35 AM 50.0 °F - 48.2 °F 94% 30.01 in 6.0 mi NNE 31.1 mph - N/A   Overcast
2:55 AM 50.0 °F - 50.0 °F 100% 30.02 in 2.5 mi NNE 27.6 mph - N/A   Overcast
3:15 AM 50.0 °F - 48.2 °F 94% 30.01 in 5.0 mi NNE 31.1 mph - N/A   Overcast
3:35 AM 48.2 °F - 48.2 °F 100% 30.03 in 7.0 mi NNE 28.8 mph - N/A   Overcast
3:55 AM 48.2 °F - 48.2 °F 100% 30.03 in 5.0 mi NNE 29.9 mph 38.0 mph N/A   Overcast
4:15 AM 48.2 °F - 48.2 °F 100% 30.03 in 5.0 mi NNE 28.8 mph - N/A   Overcast
4:35 AM 48.2 °F - 48.2 °F 100% 30.02 in 2.5 mi NNE 31.1 mph 36.8 mph N/A   Overcast
4:55 AM 48.2 °F - 48.2 °F 100% 30.02 in 9.0 mi NNE 31.1 mph 38.0 mph N/A   Overcast
5:15 AM 48.2 °F - 48.2 °F 100% 30.02 in 6.0 mi NNE 29.9 mph - N/A   Overcast
5:35 AM 48.2 °F - 48.2 °F 100% 30.03 in 5.0 mi NNE 25.3 mph 36.8 mph N/A   Overcast
5:55 AM 48.2 °F - 48.2 °F 100% 30.03 in 3.0 mi NNE 32.2 mph - N/A   Overcast
6:15 AM 48.2 °F - 48.2 °F 100% 30.04 in 5.0 mi NNE 28.8 mph 35.7 mph N/A   Overcast
6:35 AM 48.2 °F - 48.2 °F 100% 30.05 in 2.5 mi NNE 26.5 mph 39.1 mph N/A   Overcast
6:55 AM 48.2 °F - 48.2 °F 100% 30.05 in 2.5 mi NNE 32.2 mph - N/A   Overcast
7:15 AM 48.2 °F - 48.2 °F 100% 30.06 in 5.0 mi NNE 27.6 mph 34.5 mph N/A   Overcast
7:35 AM 48.2 °F - 48.2 °F 100% 30.06 in 9.0 mi NNE 29.9 mph - N/A   Overcast
7:55 AM 48.2 °F - 46.4 °F 93% 30.07 in 10.0 mi NNE 32.2 mph - 0.01 in   Overcast
8:15 AM 48.2 °F - 46.4 °F 93% 30.08 in 10.0 mi NNE 28.8 mph 35.7 mph N/A   Overcast
8:35 AM 48.2 °F - 46.4 °F 93% 30.08 in 9.0 mi NNE 32.2 mph - N/A   Overcast
8:55 AM 48.2 °F - 46.4 °F 93% 30.09 in 10.0 mi NNE 28.8 mph 36.8 mph N/A   Overcast
9:15 AM 48.2 °F - 46.4 °F 93% 30.09 in 10.0 mi NNE 28.8 mph - N/A   Overcast
9:35 AM 48.2 °F - 46.4 °F 93% 30.10 in 9.0 mi NNE 31.1 mph 39.1 mph N/A   Overcast
9:55 AM 48.2 °F - 44.6 °F 87% 30.12 in 9.0 mi North 27.6 mph 34.5 mph N/A   Overcast
10:15 AM 48.2 °F - 44.6 °F 87% 30.12 in 8.0 mi NNE 27.6 mph 33.4 mph N/A   Overcast
10:35 AM 48.2 °F - 44.6 °F 87% 30.13 in 7.0 mi North 26.5 mph 34.5 mph N/A   Overcast
10:55 AM 46.4 °F 37.5 °F 44.6 °F 93% 30.12 in 3.0 mi North 27.6 mph - N/A   Overcast
11:15 AM 46.4 °F 37.4 °F 44.6 °F 93% 30.13 in 2.0 mi North 28.8 mph - N/A   Mostly Cloudy
11:35 AM 46.4 °F 37.9 °F 44.6 °F 93% 30.13 in 1.5 mi NNE 25.3 mph 32.2 mph N/A   Mostly Cloudy
11:55 AM 46.4 °F 37.4 °F 44.6 °F 93% 30.09 in 5.0 mi NNE 28.8 mph - N/A   Mostly Cloudy
12:15 PM 46.4 °F 38.7 °F 44.6 °F 93% 30.11 in 10.0 mi NNE 20.7 mph 29.9 mph N/A   Mostly Cloudy
12:35 PM 46.4 °F 38.1 °F 42.8 °F 87% 30.09 in 10.0 mi NNE 24.2 mph - N/A   Overcast
12:55 PM 46.4 °F 38.5 °F 42.8 °F 87% 30.10 in 10.0 mi North 21.9 mph - N/A   Overcast
1:15 PM 46.4 °F 38.7 °F 42.8 °F 87% 30.08 in 10.0 mi North 20.7 mph 28.8 mph N/A   Overcast
1:35 PM 46.4 °F 39.2 °F 42.8 °F 87% 30.09 in 7.0 mi NNW 18.4 mph 28.8 mph N/A   Mostly Cloudy
1:55 PM 44.6 °F 36.9 °F 42.8 °F 93% 30.07 in 3.0 mi NNW 18.4 mph 25.3 mph N/A   Scattered Clouds
2:15 PM 44.6 °F 37.4 °F 42.8 °F 93% 30.08 in 8.0 mi NNW 16.1 mph 23.0 mph N/A   Mostly Cloudy
2:35 PM 44.6 °F 36.9 °F 42.8 °F 93% 30.07 in 6.0 mi NNW 18.4 mph 25.3 mph N/A   Mostly Cloudy
2:55 PM 44.6 °F 37.2 °F 42.8 °F 93% 30.08 in 6.0 mi NNW 17.3 mph 25.3 mph N/A   Partly Cloudy
3:15 PM 44.6 °F 35.3 °F 42.8 °F 93% 30.06 in 3.0 mi NNW 26.5 mph - N/A   Scattered Clouds
3:35 PM 44.6 °F 36.1 °F 41.0 °F 87% 30.07 in 6.0 mi NNW 21.9 mph 29.9 mph N/A   Partly Cloudy
3:55 PM 44.6 °F 34.9 °F 41.0 °F 87% 30.07 in 9.0 mi NW 28.8 mph - N/A   Scattered Clouds
4:15 PM 44.6 °F 34.9 °F 41.0 °F 87% 30.07 in 10.0 mi NW 28.8 mph - N/A   Mostly Cloudy
4:35 PM 42.8 °F 33.1 °F 39.2 °F 87% 30.07 in 10.0 mi NNW 25.3 mph 33.4 mph N/A   Mostly Cloudy
4:55 PM 42.8 °F 31.9 °F 39.2 °F 87% 30.07 in 9.0 mi NNW 32.2 mph - N/A   Mostly Cloudy
5:15 PM 42.8 °F 32.7 °F 39.2 °F 87% 30.07 in 9.0 mi NNW 27.6 mph - N/A   Mostly Cloudy
5:35 PM 42.8 °F 33.3 °F 39.2 °F 87% 30.08 in 10.0 mi NNW 24.2 mph - N/A   Overcast
5:55 PM 44.6 °F 35.7 °F 39.2 °F 81% 30.09 in 10.0 mi NNW 24.2 mph 32.2 mph N/A   Overcast
6:15 PM 44.6 °F 36.4 °F 39.2 °F 81% 30.08 in 10.0 mi North 20.7 mph 32.2 mph N/A   Overcast
6:35 PM 44.6 °F 35.7 °F 39.2 °F 81% 30.08 in 10.0 mi North 24.2 mph - N/A   Overcast
6:55 PM 44.6 °F 35.7 °F 41.0 °F 87% 30.09 in 10.0 mi NNW 24.2 mph - N/A   Overcast
7:15 PM 44.6 °F 35.9 °F 41.0 °F 87% 30.10 in 10.0 mi NNW 23.0 mph 29.9 mph N/A   Overcast
7:35 PM 44.6 °F 35.9 °F 41.0 °F 87% 30.11 in 7.0 mi North 23.0 mph 31.1 mph N/A   Overcast
7:55 PM 44.6 °F 34.9 °F 41.0 °F 87% 30.11 in 8.0 mi NNW 28.8 mph - N/A   Overcast
8:15 PM 42.8 °F 33.1 °F 39.2 °F 87% 30.12 in 9.0 mi North 25.3 mph 32.2 mph N/A   Overcast
8:35 PM 42.8 °F 32.1 °F 41.0 °F 93% 30.12 in 9.0 mi NNW 31.1 mph - N/A   Overcast
8:55 PM 42.8 °F 33.5 °F 39.2 °F 87% 30.14 in 10.0 mi North 23.0 mph 33.4 mph N/A   Overcast
9:15 PM 42.8 °F 33.5 °F 39.2 °F 87% 30.15 in 10.0 mi NNW 23.0 mph 29.9 mph N/A   Overcast
9:35 PM 44.6 °F 35.1 °F 39.2 °F 81% 30.14 in 9.0 mi NNW 27.6 mph - N/A   Overcast
9:55 PM 42.8 °F 32.7 °F 39.2 °F 87% 30.14 in 9.0 mi North 27.6 mph 35.7 mph N/A   Overcast
10:15 PM 42.8 °F 33.1 °F 39.2 °F 87% 30.14 in 9.0 mi North 25.3 mph 32.2 mph N/A   Overcast
10:35 PM 42.8 °F 33.1 °F 39.2 °F 87% 30.13 in 10.0 mi NNW 25.3 mph 31.1 mph N/A   Overcast
10:55 PM 42.8 °F 33.1 °F 39.2 °F 87% 30.12 in 10.0 mi NNW 25.3 mph 34.5 mph N/A   Overcast
11:15 PM 42.8 °F 32.9 °F 39.2 °F 87% 30.12 in 10.0 mi North 26.5 mph - N/A   Overcast
11:35 PM 42.8 °F 33.3 °F 39.2 °F 87% 30.11 in 10.0 mi North 24.2 mph - N/A   Overcast
11:55 PM 42.8 °F 33.3 °F 39.2 °F 87% 30.10 in 10.0 mi North 24.2 mph 31.1 mph N/A   Overcast